User: anonymous   Login
Location: Unspecified
(0.0000°N, 0.0000°E)
Time: 08:27:37
(UTC+00:00)
Language:

DIAMOND GREEN - Orbit

View from above orbital plane
View from above orbital plane
View from above satellite
View from above satellite

Ground track
Ground track

The orbit data is extracted from the following two-line orbital elements,

1 42785U 17036W   19346.13489170  .00000790  00000-0  37022-4 0  9993
2 42785  97.3293  39.6585 0011210 339.0339  21.0436 15.22488917137084
Epoch (UTC): 12 December 2019 03:14:14
Eccentricity: 0.0011210
inclination: 97.3293°
perigee height: 490 km
apogee height: 506 km
right ascension of ascending node: 39.6585°
argument of perigee: 339.0339°
revolutions per day: 15.22488917
mean anomaly at epoch: 21.0436°
orbit number at epoch: 13708

The dashed part of the orbit path shows where the satellite is in the earth's shadow,  

DLR